TimeCDT,TemperatureF,Dew PointF,Humidity,Sea Level PressureIn,VisibilityMPH,Wind Direction,Wind SpeedMPH,Gust SpeedMPH,PrecipitationIn,Events,Conditions,WindDirDegrees,DateUTC
12:53 AM,57.0,37.9,49,29.66,10.0,SE,6.9,-,N/A,,Clear,140,2013-03-23 05:53:00
1:53 AM,53.1,37.0,55,29.66,10.0,Calm,Calm,-,N/A,,Clear,0,2013-03-23 06:53:00
2:53 AM,50.0,37.0,61,29.66,10.0,North,10.4,-,N/A,,Clear,350,2013-03-23 07:53:00
3:53 AM,46.9,36.0,66,29.65,10.0,NNE,5.8,-,N/A,,Clear,20,2013-03-23 08:53:00
4:53 AM,44.1,36.0,73,29.65,10.0,Calm,Calm,-,N/A,,Clear,0,2013-03-23 09:53:00
5:53 AM,43.0,35.1,74,29.65,10.0,Calm,Calm,-,N/A,,Clear,0,2013-03-23 10:53:00
6:53 AM,39.9,34.0,79,29.68,10.0,Calm,Calm,-,N/A,,Clear,0,2013-03-23 11:53:00
7:53 AM,39.9,34.0,79,29.69,10.0,Calm,Calm,-,N/A,,Clear,0,2013-03-23 12:53:00
8:53 AM,44.1,36.0,73,29.72,10.0,Calm,Calm,-,N/A,,Clear,0,2013-03-23 13:53:00
9:53 AM,53.1,39.0,59,29.72,10.0,South,3.5,-,N/A,,Clear,190,2013-03-23 14:53:00
10:53 AM,66.9,32.0,27,29.70,10.0,WSW,12.7,-,N/A,,Clear,250,2013-03-23 15:53:00
11:53 AM,73.0,26.1,17,29.67,10.0,West,18.4,29.9,N/A,,Clear,260,2013-03-23 16:53:00
12:53 PM,75.0,21.9,14,29.64,10.0,West,24.2,36.8,N/A,,Clear,260,2013-03-23 17:53:00
1:53 PM,77.0,18.0,11,29.62,10.0,West,29.9,36.8,N/A,,Clear,270,2013-03-23 18:53:00
2:53 PM,79.0,17.1,10,29.60,10.0,WNW,24.2,34.5,N/A,,Clear,290,2013-03-23 19:53:00
3:53 PM,79.0,10.9,8,29.57,10.0,West,31.1,38.0,N/A,,Clear,270,2013-03-23 20:53:00
4:53 PM,80.1,7.0,6,29.57,10.0,West,20.7,42.6,N/A,,Clear,270,2013-03-23 21:53:00
5:53 PM,79.0,8.1,7,29.56,10.0,West,32.2,43.7,N/A,,Clear,260,2013-03-23 22:53:00
6:53 PM,77.0,3.0,6,29.59,8.0,West,33.4,41.4,N/A,,Mostly Cloudy,260,2013-03-23 23:53:00
7:53 PM,75.0,-0.0,5,29.62,4.0,West,29.9,39.1,N/A,,Haze,280,2013-03-24 00:53:00
8:53 PM,73.0,-0.0,6,29.66,5.0,West,18.4,26.5,N/A,,Haze,280,2013-03-24 01:53:00
9:16 PM,64.4,-5.8,6,29.81,4.0,North,25.3,40.3,N/A,,Haze,360,2013-03-24 02:16:00
9:53 PM,57.9,-6.0,7,29.82,4.0,North,32.2,42.6,N/A,,Haze,360,2013-03-24 02:53:00
10:46 PM,53.6,-14.8,6,29.93,5.0,North,32.2,46.0,N/A,,Haze,10,2013-03-24 03:46:00
10:53 PM,52.0,-8.0,8,29.86,3.0,North,33.4,43.7,N/A,,Haze,10,2013-03-24 03:53:00
11:01 PM,51.8,-0.4,12,29.95,2.5,North,29.9,47.2,N/A,,Haze,10,2013-03-24 04:01:00
11:53 PM,44.1,21.0,40,29.93,3.0,NNE,29.9,38.0,N/A,,Haze,20,2013-03-24 04:53:00